Printer-friendly version

IAU Minor Planet Center

Minor Planet Center

MPEC 2006-B84 : 2006 BG99

The following Minor Planet Electronic Circular may be linked-to from your own Web pages, but must not otherwise be redistributed electronically.


Read MPEC 2006-B83 Read MPEC 2006-B85


M.P.E.C. 2006-B84                                Issued 2006 Jan. 30, 13:02 UT

     The Minor Planet Electronic Circulars contain information on unusual
         minor planets and routine data on comets.  They are published
   on behalf of Commission 20 of the International Astronomical Union by the
          Minor Planet Center, Smithsonian Astrophysical Observatory,
                          Cambridge, MA 02138, U.S.A.

                  Supported in part by the Brinson Foundation
                  Supported in part by the TABASGO Foundation
             Prepared using the Tamkin Foundation Computer Network

                              MPC@CFA.HARVARD.EDU
          URL http://cfa-www.harvard.edu/iau/mpc.html  ISSN 1523-6714

                                   2006 BG99

Observations:
     K06B99G* C2006 01 28.36860 11 14 13.09 +03 41 22.8          22.7 V EB084G96
     K06B99G  C2006 01 28.37449 11 14 13.99 +03 41 47.0          20.9 V EB084G96
     K06B99G  C2006 01 28.38039 11 14 14.85 +03 42 11.9          22.3 V EB084G96
     K06B99G  C2006 01 28.38642 11 14 15.72 +03 42 35.3          22.0 V EB084G96
     K06B99G  C2006 01 28.41457 11 14 19.65 +03 44 31.4          20.9 V EB084G96
     K06B99G  C2006 01 28.41546 11 14 19.77 +03 44 35.4          20.9 V EB084G96
     K06B99G  C2006 01 28.41634 11 14 19.90 +03 44 38.5          21.3 V EB084G96
     K06B99G  C2006 01 28.48613 11 14 29.83 +03 49 22.5          20.5 V EB084G96
     K06B99G  C2006 01 28.49282 11 14 30.76 +03 49 50.1          22.0 V EB084G96
     K06B99G  C2006 01 28.49950 11 14 31.74 +03 50 17.2          20.9 V EB084G96
     K06B99G  C2006 01 28.50615 11 14 32.71 +03 50 43.5          21.7 V EB084G96
     K06B99G FC2006 01 29.16374 11 16 34.28 +04 34 04.7                 EB084J95
     K06B99G FC2006 01 29.18183 11 16 36.95 +04 35 14.6                 EB084J95
     K06B99G FC2006 01 29.20020 11 16 39.57 +04 36 27.7          20.8 R EB084J95
     K06B99G  C2006 01 29.59054 11 17 51.63 +05 05 01.6          20.6 R EB084474
     K06B99G  C2006 01 29.59439 11 17 52.16 +05 05 16.1          21.4 R EB084474
     K06B99G  C2006 01 29.59824 11 17 52.63 +05 05 31.3          21.2 R EB084474
     K06B99G  C2006 01 29.60209 11 17 53.15 +05 05 46.5          21.1 R EB084474

Observer details:
474 Mount John Observatory, Lake Tekapo.  Observer A. C. Gilmore.  0.6-m f/7.6
    reflector + CCD.
G96 Mt. Lemmon Survey.  Observer E. J. Christensen.  Measurers E. C. Beshore,
    E. J. Christensen, G. J. Garradd, A. D. Grauer, R. E. Hill, R. A. Kowalski,
    S. M. Larson, R. H. McNaught.  1.5-m reflector + CCD.
J95 Great Shefford.  Observer P. Birtwhistle.  0.40-m f/6.0 Schmidt-Cassegrain
    + CCD.

Orbital elements:
2006 BG99                                                Earth MOID = 0.0364 AU
Epoch 2006 Mar. 6.0 TT = JDT 2453800.5                  MPC
M  37.00166              (2000.0)            P               Q
n   0.58259406     Peri.  329.87153     -0.19680560     -0.97861264
a   1.4197940      Node   131.40849     +0.91472579     -0.20525278
e   0.2912748      Incl.    4.57880     +0.35290833     -0.01373286
P   1.69           H   25.8           G   0.15           U   8
Residuals in seconds of arc
060128 G96  0.9-  0.0     060128 G96  0.2-  0.1-    060129 J95  1.3+  1.1-
060128 G96  0.0   0.0     060128 G96  1.1+  0.4-    060129 J95  0.5+  0.0
060128 G96  0.2+  0.7+    060128 G96  0.6+  0.1+    060129 474  0.8-  0.7+
060128 G96  0.4+  0.7-    060128 G96  0.8+  0.1+    060129 474  0.5-  0.3+
060128 G96  0.2-  0.0     060128 G96  0.9+  0.5-    060129 474  1.0-  0.6+
060128 G96  0.3-  0.4+    060129 J95  0.3+  0.0     060129 474  0.9-  1.0+

Ephemeris:
2006 BG99                a,e,i = 1.42, 0.29, 5                   q = 1.0062
Date    TT    R. A. (2000) Decl.     Delta      r     Elong.  Phase     V
2006 01 25    11 01.95   -00 27.2    0.0594   1.029   137.6    40.2    21.3
2006 01 26    11 05.94   +00 51.1    0.0611   1.031   138.4    39.4    21.4
2006 01 27    11 09.61   +02 05.8    0.0629   1.033   139.1    38.6    21.4
2006 01 28    11 13.00   +03 17.0    0.0647   1.035   139.9    37.8    21.5
2006 01 29    11 16.11   +04 24.8    0.0666   1.037   140.7    37.0    21.5
2006 01 30    11 18.97   +05 29.4    0.0686   1.040   141.4    36.2    21.5
2006 01 31    11 21.59   +06 30.9    0.0706   1.042   142.2    35.4    21.6
2006 02 01    11 23.98   +07 29.3    0.0726   1.044   143.0    34.6    21.6
2006 02 02    11 26.17   +08 25.0    0.0747   1.047   143.8    33.8    21.7
2006 02 03    11 28.16   +09 17.9    0.0768   1.049   144.6    33.0    21.7
2006 02 04    11 29.97   +10 08.2    0.0790   1.052   145.3    32.2    21.8
2006 02 05    11 31.60   +10 56.1    0.0813   1.054   146.1    31.4    21.8
2006 02 06    11 33.08   +11 41.5    0.0835   1.057   146.9    30.6    21.8
2006 02 07    11 34.40   +12 24.8    0.0858   1.060   147.7    29.8    21.9
2006 02 08    11 35.58   +13 05.8    0.0882   1.063   148.5    29.0    21.9
2006 02 09    11 36.62   +13 44.9    0.0906   1.065   149.3    28.3    22.0
2006 02 10    11 37.54   +14 21.9    0.0931   1.068   150.0    27.5    22.0
2006 02 11    11 38.34   +14 57.1    0.0956   1.071   150.8    26.7    22.1
2006 02 12    11 39.02   +15 30.6    0.0981   1.074   151.6    25.9    22.1
2006 02 13    11 39.60   +16 02.3    0.101    1.077   152.3    25.2    22.1
2006 02 14    11 40.08   +16 32.4    0.103    1.081   153.1    24.5    22.2

Timothy B. Spahr             (C) Copyright 2006 MPC           M.P.E.C. 2006-B84

Read MPEC 2006-B83 Read MPEC 2006-B85


Our Web policy. Index to the CBAT/MPC/ICQ pages.


Valid HTML 4.01!